Regional Weather Roundup
Issued by NWS

Home | Current Version | Previous Version | Text Only | Print | Product List | Glossary On
Versions: 1 2 3 4 5 6 7 8 9 10 11 12 13 14 15 16 17 18 19 20 21 22 23 24 25 26 27 28 29 30 31 32 33 34 35 36 37 38 39 40 41 42 43 44 45 46 47 48 49 50
000
ASUS43 KDTX 281501
RWRMI
MICHIGAN HOURLY REGIONAL WEATHER ROUNDUP
NATIONAL WEATHER SERVICE DETROIT/PONTIAC MI
1000 AM EST FRI NOV 28 2014

NOTE: "FAIR" INDICATES FEW OR NO CLOUDS BELOW 12,000 FEET WITH NO
SIGNIFICANT WEATHER AND/OR OBSTRUCTION TO VISIBILITY.

MIZ047>049-052>055-059>063-066>070-074>076-081>083-281600-
SOUTHEAST LOWER MICHIGAN

CITY           SKY/WX    TMP DP  RH WIND       PRES   REMARKS
ADRIAN         CLOUDY    21  13  71 S7        30.33S WCI  12
ALMA           CLOUDY    21  11  65 S7        30.29F WCI  13
ANN ARBOR      CLOUDY    20  10  65 S6        30.32S WCI  12
BAD AXE        PTSUNNY   21  10  63 W6        30.29S WCI  13
CARO           PTSUNNY   21  12  68 SW3       30.30R
DETROIT CITY   PTSUNNY   23   8  52 SW5       30.33F WCI  17
DETROIT        CLOUDY    21  10  62 S8        30.34F WCI  11
FLINT          PTSUNNY   22   8  55 S5        30.31S WCI  16
GROSSE ILE     CLOUDY    21  10  63 S5        30.33S WCI  15
HILLSDALE      PTSUNNY   22  19  86 SW7       30.28R WCI  14
HOWELL         CLOUDY    20  11  68 S5        30.30R WCI  13

CITY           SKY/WX    TMP DP  RH WIND       PRES   REMARKS
JACKSON        PTSUNNY   21  13  71 S5        30.30R WCI  15
LAMBERTVILLE   PTSUNNY   25  12  58 S3        30.35R
LANSING        CLOUDY    21   9  59 S7        30.30R WCI  12
LAPEER         PTSUNNY   20   9  62 CALM      30.30S
MASON          CLOUDY    22  11  65 S6        30.29S WCI  14
MONROE         PTSUNNY   21  12  68 CALM      30.33S
MT. CLEMENS    PTSUNNY   22   8  56 VRB3      30.31S
PONTIAC        PTSUNNY   19   8  62 W3        30.29S
PORT HOPE        N/A     21  10  62 W8        30.26F WCI  11
PORT HURON     PTSUNNY   21   9  58 W6        30.32S WCI  14
TRI CITIES     CLOUDY    22  10  60 S8        30.30F WCI  12
TROY           PTSUNNY   23   9  54 W5        30.34S WCI  17
SAGINAW HB     CLOUDY    23  12  63 S6        30.30S WCI  16
$$
MIZ043>046-050>051-056>058-064>065-071>073-077>080-281600-
SOUTHWEST LOWER MICHIGAN

CITY           SKY/WX    TMP DP  RH WIND       PRES   REMARKS
BATTLE CREEK   CLOUDY    24  15  68 SW10      30.29R WCI  14
BENTON HARBOR  CLOUDY    21  14  74 S7        30.29S WCI  12
BIG RAPIDS     LGT SNOW  20  17  88 S3        30.24S
COLDWATER      CLOUDY    24  16  70 SW7       30.29S WCI  16
FREMONT        FLURRIES  21  16  81 SE6       30.24F WCI  13
HOLLAND        LGT SNOW  24  16  71 S10       30.27F WCI  14
GRAND RAPIDS   CLOUDY    22  17  81 S10       30.28S WCI  11
IONIA          CLOUDY    22  16  76 S7        30.28S WCI  14
KALAMAZOO      CLOUDY    23  15  71 S9        30.29S WCI  13
LUDINGTON      FLURRIES  19  16  87 SE6       30.22F WCI  11
MARSHALL       CLOUDY    22  16  77 SW8       30.29R WCI  13
MOUNT PLEASANT CLOUDY    22  12  67 S5        30.27S WCI  15
MUSKEGON       LGT SNOW  22  17  81 SE8       30.26F VSB 3/4 WCI  12
SOUTH HAVEN    CLOUDY    25  14  64 S9        30.28S WCI  15
$$
MIZ016>042-281600-
NORTHERN LOWER MICHIGAN

CITY           SKY/WX    TMP DP  RH WIND       PRES   REMARKS
ALPENA         CLOUDY    18  13  80 SW7       30.25S WCI   9
BEAVER ISLAND  FLURRIES  22  15  72 SW8       30.19F WCI  13
BELLAIRE       CLOUDY    19  13  78 S7        30.23F WCI  10
CADILLAC       FLURRIES  17  13  86 S8        30.18F WCI   6
CHARLEVOIX     CLOUDY    22  15  74 SW7       30.23F WCI  13
FRANKFORT      CLOUDY    21  17  84 SE7       30.21F WCI  12
GAYLORD        CLOUDY    15  10  80 S7        30.17F WCI   5
GRAYLING       CLOUDY    17  13  83 SW3       30.21S
HARBOR SPRINGS FLURRIES  20  16  83 S7        30.20S WCI  11
HOUGHTON LAKE  CLOUDY    17  11  77 S6        30.21F WCI   9
MANISTEE       CLOUDY    19  16  86 S7        30.22F WCI  10
OSCODA         PTSUNNY   19  13  76 SW7       30.26S WCI  10
PELLSTON       LGT SNOW  18  15  88 SE7       30.21F FOG     WCI   9
ROGERS CITY    LGT SNOW  18  15  90 S5        30.25S WCI  11
TRAVERSE CITY  CLOUDY    20  13  74 S5        30.22F WCI  13
$$
MIZ007>008-015-281600-
EASTERN UPPER MICHIGAN

CITY           SKY/WX    TMP DP  RH WIND       PRES   REMARKS
KINROSS        PTSUNNY    9   7  92 SE8       30.19F WCI  -4
MACKINAC ISLAN LGT SNOW  20  15  82 CALM      30.19F
NEWBERRY       CLOUDY    11   5  76 SW8       30.17F WCI  -1
S. S. MARIE    CLOUDY     6   3  87 VRB3      30.23R
MUNISING         N/A     13   3  64 S6        30.18F WCI   4
$$
MIZ004>006-011>014-085-281600-
CENTRAL UPPER MICHIGAN

CITY           SKY/WX    TMP DP  RH WIND       PRES   REMARKS
MANISTIQUE     CLOUDY    13   6  72 W5        30.19F WCI   5
ESCANABA       CLOUDY    12   3  67 W7        30.19S WCI   2
MENOMINEE      PTSUNNY   12   7  79 CALM      30.19F
SAWYER-GWINN   CLOUDY     9   3  78 SW6       30.12F WCI  -1
$$
MIZ001>003-009>011-084-281600-
WESTERN UPPER MICHIGAN

CITY           SKY/WX    TMP DP  RH WIND       PRES   REMARKS
IRON MOUNTAIN  CLOUDY     8   3  80 S3        30.13S
HOUGHTON       CLOUDY     8   1  73 S5        30.10S WCI   0
COPPER HARBOR    N/A     12   1  61 SW9       30.12S WCI   0
IRONWOOD       CLOUDY     9   5  85 E6        30.03F WCI  -1
$$

ABBREVIATIONS USED IN REMARKS
   TC - TEMPERATURE IN CELSIUS
  WCI - WIND CHILL INDEX
   HX - HEAT INDEX
  VSB - VISIBILITY




USA.gov is the U.S. government's official web portal to all federal, state and local government web resources and services.